Flag for U.S.A. Weather past 2 weeks in Helena, Montana, U.S.A.

Now
59 °F

Passing clouds.


Feels Like: 59 °F
Forecast: 49 / 63 °F
Wind: 5 mph from Southeast

Location: Helena Regional Airport

Current Time: May 22, 2015 at 10:40:28 PM

Latest Report: May 22, 2015 at 9:53 PM


Visibility: 10 mi

Pressure: 29.91 "Hg

Humidity: 56%

Dew point: 43 °F

Location of HelenaLocation

Historic Weather in Helena — Graph

°F

Helena temperature yesterday

Maximum temperature yesterday: 71 °F (at 3:53 PM)
Minimum temperature yesterday: 41 °F (at 3:53 AM)
Average temperature yesterday: 56 °F

Past Weeks' High & Low Weather Summary

 TemperatureHumidityPressure
High72 °F (May 22, 1:53 PM)90% (May 14, 5:53 PM)30.43 "Hg (May 14, 5:53 PM)
Low31 °F (May 10, 5:53 AM)10% (May 10, 4:53 PM)29.69 "Hg (May 16, 10:00 AM)
Average50 °F59%30.06 "Hg
* Reported May 7 8:53 PM — May 22 8:53 PM, Helena, Weather by CustomWeather, © 2015

Note: Actual official high and low records may vary slightly from our data, if they occured in-between our weather recording intervals... More about our weather records

Advertising

Helena weather history for previous 24 hours

 ConditionsComfort  
Time TempWeatherWind HumidityBarometerVisibility
8:53 PM
Fri, May 22
63 °FMore clouds than sun.12 mph48%29.91 "Hg10 mi
7:53 PM66 °FMostly cloudy.7 mph42%29.89 "Hg10 mi
6:53 PM67 °FOvercast.9 mph42%29.89 "Hg10 mi
5:53 PM66 °FMostly cloudy.10 mph45%29.90 "Hg10 mi
4:53 PM70 °FPartly sunny.10 mph32%29.88 "Hg10 mi
3:53 PM71 °FBroken clouds.12 mph34%29.88 "Hg10 mi
2:53 PM71 °FPassing clouds.14 mph34%29.90 "Hg10 mi
1:53 PM72 °FPassing clouds.8 mph34%29.88 "Hg10 mi
12:53 PM68 °FSunny.7 mph39%29.90 "Hg10 mi
11:53 AM66 °FSunny.3 mph43%29.91 "Hg10 mi
10:53 AM62 °FSunny.3 mph54%29.95 "Hg10 mi
9:53 AM58 °FSunny.5 mph62%29.96 "Hg10 mi
8:53 AM54 °FSunny.No wind69%29.97 "Hg10 mi
7:53 AM50 °FSunny.No wind80%29.98 "Hg10 mi
6:53 AM47 °FSunny.No wind83%29.97 "Hg10 mi
5:53 AM45 °FClear.6 mph86%29.97 "Hg10 mi
4:53 AM45 °FClear.No wind90%29.96 "Hg10 mi
3:53 AM44 °FClear.3 mph89%29.96 "Hg10 mi
2:53 AM47 °FClear.3 mph86%29.95 "Hg10 mi
1:53 AM49 °FClear.No wind84%29.95 "Hg10 mi
12:53 AM50 °FClear.6 mph80%29.95 "Hg10 mi
11:53 PM
Thu, May 21
53 °FClear.5 mph80%29.95 "Hg10 mi
10:53 PM52 °FPassing clouds.No wind80%29.96 "Hg10 mi
Weather by CustomWeather, © 2015

See weather overviewHow to use our weather pages